Terug naar catalogus

STARLINK-31292

ActiefCommunicatieVLEO
NORAD 59081·PAYLOAD·🇺🇸 United States

Gelanceerd Feb 29, 2024 vanaf Cape Canaveral Space Force Station

Loading…

Volgende Passages (komende 24 uur)

TLE

VersSource: CelesTrak SupGP

Epoch: Sep 14, 2026, 20:43 UTC

1 59081C 24041H   26257.86368056 -.00021855  00000+0 -79146-3 0  2577
2 59081  43.0031 322.0936 0001775 274.0172 180.0156 15.27593376    14

Volg STARLINK-31292 in realtime met AllMySat

Download on the App Store